Home   Weather   Hillsboro   Past weeks
Flag for USA

Past Weather in Hillsboro, Oregon, USA — Yesterday and Last 2 Weeks

Now
67 °F

Sunny.


Feels Like: 67 °F
Forecast: 73 / 52 °F
Wind: 13 mph from Northwest

Location: Portland-Hillsboro Airport

Current Time: Jun 17, 2019 at 9:56:24 pm

Latest Report: Jun 17, 2019 at 8:53 pm


Visibility: 10 mi

Pressure: 30.12 "Hg

Humidity: 61%

Dew Point: 53 °F

Location of HillsboroLocation

Past Weather in Hillsboro — Graph

°F

Hillsboro Temperature Yesterday

Maximum temperature yesterday: 80 °F (at 3:53 pm)
Minimum temperature yesterday: 51 °F (at 4:53 am)
Average temperature yesterday: 64 °F

High & Low Weather Summary for the Past Weeks

 TemperatureHumidityPressure
High95 °F (Jun 12, 5:53 pm)93% (Jun 4, 5:53 am)30.40 "Hg (Jun 4, 5:53 am)
Low41 °F (Jun 4, 5:53 am)23% (Jun 4, 3:53 pm)29.77 "Hg (Jun 12, 6:53 pm)
Average64 °F60%30.09 "Hg
* Reported Jun 2 7:53 pm — Jun 17 7:53 pm, Hillsboro. Weather by CustomWeather, © 2019

Note: Actual official high and low records may vary slightly from our data, if they occured in-between our weather recording intervals... More about our weather records

Advertising

Hillsboro Weather History for the Previous 24 Hours

Scroll right to see more
 ConditionsComfort  
Time TempWeatherWind HumidityBarometerVisibility
7:53 pm
Mon, Jun 17
72 °FSunny.10 mph52%30.12 "Hg10 mi
6:53 pm76 °FSunny.15 mph47%30.10 "Hg10 mi
5:53 pm79 °FSunny.15 mph41%30.09 "Hg10 mi
4:53 pm80 °FSunny.13 mph41%30.09 "Hg10 mi
3:53 pm79 °FSunny.5 mph45%30.09 "Hg10 mi
2:53 pm78 °FSunny.5 mph46%30.10 "Hg10 mi
1:53 pm77 °FSunny.6 mph48%30.11 "Hg10 mi
12:53 pm73 °FSunny.No wind51%30.12 "Hg10 mi
11:53 am70 °FSunny.3 mph55%30.13 "Hg10 mi
10:53 am67 °FSunny.5 mph59%30.14 "Hg10 mi
9:53 am64 °FScattered clouds.3 mph65%30.14 "Hg10 mi
9:08 am64 °FPartly sunny.5 mph65%30.14 "Hg10 mi
8:53 am63 °FSunny.3 mph65%30.13 "Hg10 mi
7:53 am59 °FSunny.No wind75%30.12 "Hg10 mi
6:53 am54 °FSunny.3 mph90%30.11 "Hg10 mi
5:53 am51 °FSunny.No wind92%30.10 "Hg10 mi
4:53 am51 °FClear.No wind89%30.09 "Hg10 mi
3:53 am52 °FClear.No wind89%30.08 "Hg10 mi
2:53 am55 °FClear.8 mph83%30.08 "Hg10 mi
1:53 am56 °FClear.5 mph81%30.06 "Hg10 mi
12:53 am58 °FClear.7 mph78%30.06 "Hg10 mi
11:53 pm
Sun, Jun 16
59 °FClear.8 mph78%30.05 "Hg10 mi
10:53 pm59 °FClear.5 mph78%30.05 "Hg10 mi
9:53 pm62 °FClear.7 mph70%30.03 "Hg10 mi
Weather by CustomWeather, © 2019

See weather overview